Miscellaneous Local Product
Issued by NWS Hastings, NE

Home | Current Version | Previous Version | Graphics & Text | Print | Product List | Glossary On
Versions: 1 2 3 4 5 6 7 8 9 10 11 12 13 14 15 16 17 18 19 20 21 22 23 24 25 26 27 28 29 30 31 32 33 34 35 36 37 38 39 40 41 42 43 44 45 46 47 48 49 50
000
AXUS43 KGID 170702
MISGRI

GID CWA HOURLY WEATHER ROUNDUP
NATIONAL WEATHER SERVICE HASTINGS NE
200 AM CDT THU AUG 17 2017

NOTE: "FAIR" INDICATES FEW OR NO CLOUDS BELOW 12,000 FEET WITH NO
SIGNIFICANT WEATHER AND/OR OBSTRUCTIONS TO VISIBILITY.

...SOUTH CENTRAL NEBRASKA...

CITY           SKY/WX    TMP DP  RH WIND       PRES   REMARKS
GRAND ISLAND   CLEAR     61  61 100 W7        29.95S
HASTINGS       CLEAR     59  57  93 W5        29.97S
KEARNEY        CLEAR     60  56  86 NW7       29.98R
ORD            CLEAR     59  56  89 NW6       29.94S
YORK           CLEAR     61  61 100 W8        29.92S
AURORA         CLEAR     60  60 100 W7        29.93F
LEXINGTON      CLEAR     57  55  92 NW5       30.00S
HOLDREGE       CLEAR     58  56  90 W7        30.00R
HEBRON         CLEAR     64  62  92 W3        29.92F

...NEBRASKA PANHANDLE...

CITY           SKY/WX    TMP DP  RH WIND       PRES   REMARKS
CHADRON        CLEAR     53  49  86 SW3       30.02F
ALLIANCE       CLEAR     52  49  89 W5        30.06F
SCOTTSBLUFF    CLEAR     55  50  83 E5        30.07S
SIDNEY         CLEAR     51  48  89 SW9       30.11S

...WESTERN AND NORTH CENTRAL NEBRASKA...

CITY           SKY/WX    TMP DP  RH WIND       PRES   REMARKS
VALENTINE      CLEAR     52  47  83 W6        29.99S
AINSWORTH      CLEAR     54  51  92 W6        29.98S
ONEILL         CLEAR     60  58  94 W10       29.92S
BROKEN BOW     CLEAR     59  55  87 CALM      29.99R
IMPERIAL       CLEAR     56  52  86 W6        30.07R
NORTH PLATTE   CLEAR     55  53  93 CALM      30.02R
MCCOOK         CLEAR     56  56 100 SW7       30.04R

...EASTERN NEBRASKA...

CITY           SKY/WX    TMP DP  RH WIND       PRES   REMARKS
NORFOLK        MOCLDY    64  59  83 W14       29.86S
SO SIOUX CITY  CLOUDY    67  65  93 W12       29.77F
TEKAMAH        MOCLDY    65  61  87 SW7       29.80F
COLUMBUS       CLEAR     63  60  90 W8        29.88S
ALBION         CLEAR     62  60  91 NW7       29.90F
OMAHA EPPLEY   CLEAR     67  60  78 W8        29.82S
OFFUTT AFB     CLEAR     66  60  81 W7        29.83R
MILLARD        CLEAR     67  62  83 W7        29.84R
LINCOLN        CLEAR     66  61  84 W10       29.88S
NEBRASKA CITY  CLEAR     65  64  96 W8        29.85S
BEATRICE       CLEAR     65  64  95 W7        29.89S
FALLS CITY     CLEAR     67  63  87 NW7       29.85S

...NORTHERN KANSAS...

CITY           SKY/WX    TMP DP  RH WIND       PRES   REMARKS
GOODLAND       CLEAR     56  54  93 SW5       30.10R
HILL CITY      CLEAR     61  60  97 W7        30.02S
NORTON         SUNNY     57  54  88 W7        30.01
PHILLIPSBURG   CLEAR     61  61 100 W5        30.00S
SMITH CENTER   PTCLDY    57  57 100 SW5       29.98S FOG
HAYS           CLEAR     61  60  97 W6        30.01S
RUSSELL        CLEAR     62  60  93 W6        29.97F
CONCORDIA      CLEAR     64  64 100 W9        29.93F
SALINA         CLEAR     68  63  84 NW8       29.93F
TOPEKA         CLOUDY    71  68  90 W8        29.87R



USA.gov is the U.S. government's official web portal to all federal, state and local government web resources and services.